Regional Weather Roundup
Issued by NWS

Home | Current Version | Previous Version | Graphics & Text | Print | Product List | Glossary Off
Versions: 1 2 3 4 5 6 7 8 9 10 11 12 13 14 15 16 17 18 19 20 21 22 23 24 25 26 27 28 29 30 31 32 33 34 35 36 37 38 39 40 41 42 43 44 45 46 47 48 49 50

000
ASUS43 KLSX 260410
RWRMO

WEATHER SUMMARY FOR MISSOURI
NATIONAL WEATHER SERVICE SPRINGFIELD MO
1100 PM CDT TUE JUL 25 2017

NOTE: "FAIR" INDICATES FEW OR NO CLOUDS BELOW 12,000 FEET WITH NO
       SIGNIFICANT WEATHER AND/OR OBSTRUCTIONS TO VISIBILITY.
       CURRENT SKY AND/OR WEATHER CONDITIONS ARE NOT AVAILABLE FOR
       CHILLICOTHE AND FARMINGTON.

MOZ001>031-035>038-043-044-053-054-260500-
...NORTHERN AND WESTERN MISSOURI...

CITY           SKY/WX    TMP DP  RH WIND       PRES   REMARKS
KANSAS CTY INT CLOUDY    83  77  82 SE9       30.04R HX  92
KANSAS C DTWN  CLEAR     86  77  74 SE10      30.02R HX  97
LEE`S SUMMIT   CLEAR     83  76  79 SE8       30.05R HX  91
ST JOSEPH      CLOUDY    83  78  85 SE13      30.02R HX  93
CHILLICOTHE      N/A     80  74  81 SE3       30.06R
KIRKSVILLE     MOCLDY    75  69  81 SE6       30.08R

$$
MOZ066>068-077>081-088>096-101>105-260500-
...SOUTHWEST MISSOURI...

CITY           SKY/WX    TMP DP  RH WIND       PRES   REMARKS
SPRINGFIELD    PTCLDY    81  71  71 S6        30.07S
JOPLIN         CLEAR     82  73  74 S5        30.06R
BRANSON        CLEAR     81  68  65 CALM      30.11R

$$
MOZ032>034-039>042-045>050-055>058-069>072-260500-
...CENTRAL MISSOURI...

CITY           SKY/WX    TMP DP  RH WIND       PRES   REMARKS
COLUMBIA       CLEAR     77  71  82 E7        30.07S
JEFFERSON CITY CLEAR     79  71  76 VRB3      30.05S
ROLLA          CLEAR     79  69  71 E7        30.08F
SEDALIA        PTCLDY    80  74  81 E5        30.06S
WHITEMAN AFB   CLEAR     80  80 100 SE3       30.04R
WARRENSBURG    CLEAR     81  72  74 E7        30.04R
OSAGE BEACH    PTCLDY    80  67  64 E3        30.06F

$$
MOZ051-052-059>065-260500-
...EAST CENTRAL MISSOURI...

CITY           SKY/WX    TMP DP  RH WIND       PRES   REMARKS
ST LOUIS INTL  PTCLDY    84  71  65 E14       30.08S
SPIRIT OF STL  CLEAR     82  73  74 E6        30.06S
ST CHARLES     CLEAR     77  72  84 E7        30.07R

$$
MOZ072>076-082>087-097>100-106>115-260500-
...SOUTH CENTRAL AND SOUTHEAST MISSOURI...

CITY           SKY/WX    TMP DP  RH WIND       PRES   REMARKS
CAPE GIRARDEAU PTCLDY    78  74  87 E3        30.07S
FARMINGTON     CLEAR     79  75  87 SE5       30.10S
POPLAR BLUFF   CLEAR     81  78  91 CALM      30.06R
WEST PLAINS    CLEAR     81  72  74 S5        30.10R

$$




USA.gov is the U.S. government's official web portal to all federal, state and local government web resources and services.